This demonstration page uses our WeatherBlox Daily Observations layout. Learn more.

Left ArrowRight Arrow

31.84235, -102.49876

Hourly Observations for March 27, 2017

Temp ( °F °C ) Dew Point ( °F °C ) Humidity (%) Winds ( mph kmh ) Pressure ( in mb ) Visibility ( mi km ) Precip ( " mm )
12:53 am 00:53 Clear 61 16.1 20 -6.7 20 20 NNW 8 13 29.79 1009 10 16 0.00 0.00
1:53 am 01:53 undefined 62 16.7 20 -6.7 20 20 undefined N/A 29.78 1009 N/A 0.00 0.00
2:53 am 02:53 Clear 57 13.9 19 -7.2 23 23 NNW 10 17 29.85 1011 10 16 0.00 0.00
3:53 am 03:53 undefined N/A N/A N/A undefined N/A N/A N/A 0.00 0.00
4:53 am 04:53 undefined N/A N/A N/A undefined N/A N/A N/A 0.00 0.00
5:53 am 05:53 undefined N/A N/A N/A undefined N/A N/A N/A 0.00 0.00
6:53 am 06:53 Clear 47 8.3 34 1.1 61 61 undefined N/A 29.87 1011 10 16 0.00 0.00
7:53 am 07:53 undefined N/A N/A N/A undefined N/A N/A N/A 0.00 0.00
8:53 am 08:53 undefined N/A N/A N/A undefined N/A N/A N/A 0.00 0.00
9:53 am 09:53 undefined N/A N/A N/A undefined N/A N/A N/A 0.00 0.00
10:53 am 10:53 Sunny 57 13.9 36 2.2 45 45 ESE 7 11 29.95 1014 10 16 0.00 0.00
11:53 am 11:53 Sunny 61 16.1 37 2.8 41 41 VRB 3 6 29.94 1014 9 14 0.00 0.00
12:53 pm 12:53 Sunny 66 18.9 36 2.2 33 33 VRB 6 9 29.90 1013 10 16 0.00 0.00
1:31 pm 13:31 Mostly Sunny 68 20 36 2.2 31 31 Calm 29.85 1011 10 16 0.00 0.00
1:53 pm 13:53 Mostly Sunny 70 21.1 36 2.2 29 29 VRB 3 6 29.86 1011 10 16 0.00 0.00
2:53 pm 14:53 Mostly Sunny 73 22.8 33 0.6 23 23 VRB 5 7 29.83 1010 10 16 0.00 0.00
3:53 pm 15:53 Partly Cloudy 76 24.4 32 0 20 20 SSE 8 13 29.71 1006 10 16 0.00 0.00
4:53 pm 16:53 Mostly Sunny 78 25.6 30 -1.1 17 17 undefined N/A 29.68 1005 10 16 0.00 0.00
5:45 pm 17:45 Mostly Cloudy 79 26.1 29 -1.7 16 16 SE 7 11 29.65 1004 10 16 0.00 0.00
5:53 pm 17:53 Partly Cloudy 79 26.1 29 -1.7 16 16 S 8 13 29.65 1004 10 16 0.00 0.00
6:53 pm 18:53 Sunny 79 26.1 27 -2.8 15 15 ENE 6 9 29.72 1006 10 16 0.00 0.00
7:17 pm 19:17 Mostly Sunny 79 26.1 27 -2.8 15 15 SSE 8 13 29.62 1003 10 16 0.00 0.00
7:53 pm 19:53 Partly Cloudy 76 24.4 27 -2.8 16 16 SE 8 13 29.65 1004 10 16 0.00 0.00
8:53 pm 20:53 Clear 70 21.1 28 -2.2 21 21 E 8 13 29.71 1006 10 16 0.00 0.00
9:53 pm 21:53 Clear 65 18.3 29 -1.7 26 26 E 8 13 29.74 1007 10 16 0.00 0.00
10:53 pm 22:53 Clear 65 18.3 28 -2.2 25 25 ESE 10 17 29.75 1007 10 16 0.00 0.00
11:53 pm 23:53 Clear 68 20 33 0.6 27 27 ESE 17 28 29.73 1007 10 16 0.00 0.00

Powered by AerisWeather